Bowling Green, KY

11:43 AM CST on January 24, 2017 (GMT -0600)
Bowling Green-Warren County Regional

Weather History for KBWG - January, 2015

Change the Weather History Date:

Wednesday, January 14, 2015

  Actual Average Record
Temperature  
Mean Temperature 32 °F 35 °F  
Max Temperature 36 °F 45 °F 72 °F (1932)
Min Temperature 28 °F 26 °F -2 °F (1917)
Degree Days  
Heating Degree Days 33 30  
Month to date heating degree days 480 415  
Since 1 July heating degree days 2093 1999  
Cooling Degree Days 0 0  
Month to date cooling degree days 0 0  
Year to date cooling degree days 0 0  
Moisture  
Dew Point 19 °F    
Average Humidity 61    
Maximum Humidity 75    
Minimum Humidity 47    
Precipitation  
Precipitation 0.00 in 0.11 in 2.25 in (1918)
Month to date precipitation 1.17 1.61  
Year to date precipitation 1.17 1.61  
Snow  
Snow 0.00 in 0.10 in 6.00 in (1917)
Month to date snowfall 0.1 1.3  
Since 1 July snowfall 0.4 2.5  
Snow Depth 0.00 in    
Sea Level Pressure  
Sea Level Pressure 30.35 in    
Wind  
Wind Speed 2 mph (NW)    
Max Wind Speed 8 mph    
Max Gust Speed 10 mph    
Visibility 10 miles    
Events      
T = Trace of Precipitation, MM = Missing Value Source: NWS Daily Summary

Daily Weather History Graph

Daily Weather History Graph

Search for Another Location

Airport or City:

Trip Planner

Search our weather history database for the weather conditions in past years. The results will help you decide how hot, cold, wet, or windy it might be!

Date:

Astronomy

Jan. 14, 2015 Rise Set
Actual Time 6:58 AM CST 4:51 PM CST
Civil Twilight 6:29 AM CST 5:19 PM CST
Nautical Twilight 5:57 AM CST 5:51 PM CST
Astronomical Twilight 5:26 AM CST 6:23 PM CST
Moon 12:54 AM CST (1/14) 12:02 PM CST (1/14)
Length of Visible Light 10h 50m
Length of Day
9h 53m
Last Quarter, 37% of the Moon is Illuminated
Jan 14
Last Quarter
Jan 20
New
Jan 26
First Quarter
Feb 3
Full
Feb 11
Last Quarter

Hourly Weather History & Observations

Time (CST) Temp. Windchill Dew Point Humidity Pressure Visibility Wind Dir Wind Speed Gust Speed Precip Events Conditions
12:53 AM 28.0 °F - 21.0 °F 75% 30.39 in 10.0 mi Calm Calm - N/A   Overcast
1:53 AM 28.0 °F - 19.9 °F 72% 30.40 in 10.0 mi Calm Calm - N/A   Overcast
2:53 AM 28.0 °F - 19.9 °F 72% 30.39 in 10.0 mi Calm Calm - N/A   Overcast
3:53 AM 28.0 °F 22.8 °F 19.9 °F 72% 30.39 in 10.0 mi West 4.6 mph - N/A   Overcast
4:53 AM 28.0 °F 24.2 °F 19.9 °F 72% 30.39 in 10.0 mi NW 3.5 mph - N/A   Overcast
5:53 AM 28.0 °F 22.8 °F 19.9 °F 72% 30.39 in 10.0 mi NW 4.6 mph - N/A   Overcast
6:53 AM 28.0 °F 21.7 °F 19.0 °F 69% 30.40 in 10.0 mi West 5.8 mph - N/A   Overcast
7:53 AM 28.0 °F 22.8 °F 19.0 °F 69% 30.41 in 9.0 mi North 4.6 mph - N/A   Overcast
8:53 AM 28.0 °F 24.2 °F 19.0 °F 69% 30.41 in 8.0 mi North 3.5 mph - N/A   Overcast
9:53 AM 28.0 °F 24.2 °F 18.0 °F 66% 30.42 in 10.0 mi Variable 3.5 mph - N/A   Overcast
10:53 AM 30.0 °F 26.5 °F 19.0 °F 64% 30.40 in 10.0 mi NW 3.5 mph - N/A   Mostly Cloudy
11:53 AM 30.0 °F 26.5 °F 19.0 °F 64% 30.37 in 10.0 mi Variable 3.5 mph - N/A   Mostly Cloudy
12:14 PM 30.9 °F 27.5 °F 19.0 °F 61% 30.33 in 10.0 mi Variable 3.5 mph - N/A   Scattered Clouds
12:53 PM 33.1 °F 30.0 °F 19.0 °F 56% 30.33 in 10.0 mi NNW 3.5 mph - N/A   Clear
1:53 PM 34.0 °F - 19.0 °F 54% 30.32 in 9.0 mi Calm Calm - N/A   Clear
2:53 PM 35.1 °F 32.2 °F 19.0 °F 52% 30.31 in 8.0 mi Variable 3.5 mph - N/A   Partly Cloudy
3:53 PM 35.1 °F - 18.0 °F 50% 30.32 in 9.0 mi Calm Calm - N/A   Clear
4:53 PM 33.1 °F 28.7 °F 18.0 °F 54% 30.32 in 10.0 mi NW 4.6 mph - N/A   Mostly Cloudy
5:53 PM 32.0 °F - 18.0 °F 56% 30.33 in 10.0 mi Calm Calm - N/A   Mostly Cloudy
6:53 PM 32.0 °F - 18.0 °F 56% 30.32 in 10.0 mi Calm Calm - N/A   Overcast
7:53 PM 30.9 °F 26.2 °F 19.0 °F 61% 30.33 in 10.0 mi NW 4.6 mph - N/A   Overcast
8:53 PM 30.9 °F - 19.0 °F 61% 30.31 in 10.0 mi Calm Calm - N/A   Overcast
9:53 PM 28.9 °F - 21.0 °F 72% 30.30 in 9.0 mi Calm Calm - N/A   Overcast
10:53 PM 30.9 °F - 19.9 °F 64% 30.31 in 10.0 mi Calm Calm - N/A   Overcast
11:53 PM 30.0 °F 26.5 °F 21.0 °F 69% 30.27 in 10.0 mi East 3.5 mph - N/A   Overcast